Wind_Speed
1 12 6 5 5 2 5 5 2 9 8 3 4 3 1 5 2 3 13 13 18 18 16 14 14 13 13 13 13 11 12 13 11 11 10 10 10 10 11 12 11 11 11 13 13 11 12 12 12
7 9 3 1 4 4 6 6 9 8 5 9 7 5 2 3 4 8 11 14 20 18 16 14 14 13 13 13 12 12 10 10 10 9 8 8 9 9 9 11 12 9 10 10 11 11 9 10 10
9 4 3 3 3 3 4 9 10 10 9 6 5 1 2 3 5 14 9 20 18 17 15 14 14 12 12 13 10 11 8 9 10 9 8 8 8 9 9 9 10 8 8 9 9 10 9 8 9
5 5 2 5 5 3 2 11 12 12 3 3 5 7 4 1 14 6 18 19 17 15 14 15 14 12 11 12 12 11 8 8 10 10 9 9 8 8 7 7 10 8 6 7 7 7 8 7 6
3 3 4 4 4 4 4 10 16 10 8 8 5 6 7 8 4 13 19 18 17 16 14 14 14 12 11 11 12 11 9 7 8 8 7 7 7 7 6 7 8 7 6 4 5 5 5 6 5
4 2 8 9 5 4 7 13 12 7 8 7 5 11 7 7 12 18 18 16 15 15 14 13 13 11 10 10 10 11 10 7 7 5 3 4 4 5 5 5 5 4 2 1 3 3 2 3 1
3 5 10 8 9 6 8 13 11 8 9 6 9 9 5 10 16 17 17 15 14 13 13 12 12 11 10 9 9 9 9 9 6 7 6 4 4 4 3 4 4 4 2 1 2 3 3 1 1
2 2 7 7 12 7 12 13 6 8 7 6 3 4 7 16 18 17 17 16 14 13 12 12 11 11 10 8 8 8 8 7 6 6 6 6 5 5 5 4 4 4 3 2 1 1 2 2 3
1 4 8 10 12 9 12 9 5 2 10 4 5 2 7 22 19 18 18 15 14 14 13 12 12 11 10 9 8 8 7 7 6 5 5 5 5 6 7 7 6 5 4 4 4 4 4 5 5
1 4 8 4 6 11 16 10 12 8 10 4 7 4 16 25 22 20 17 17 16 16 15 13 12 12 11 10 9 9 7 6 6 6 5 5 6 6 6 7 7 7 6 6 6 7 7 6 5
2 1 2 3 2 8 15 10 6 10 9 8 12 13 21 24 21 19 18 17 18 16 14 14 13 12 12 10 9 8 8 7 7 7 6 5 5 5 6 6 6 5 6 5 5 6 5 6 5
2 4 2 3 2 6 10 11 8 11 4 3 6 16 24 21 22 21 18 16 16 16 14 13 13 12 12 10 10 9 9 9 8 8 8 7 5 5 5 6 5 6 6 5 5 5 5 6 6
5 3 4 3 4 3 7 6 4 9 3 1 9 18 19 19 20 19 17 15 15 15 15 15 15 14 13 13 11 10 10 10 9 9 9 9 8 7 6 6 5 4 5 7 7 8 9 9 9
4 4 3 4 4 3 7 3 3 6 2 5 11 16 17 19 21 18 18 19 19 16 16 15 15 15 14 14 13 12 11 10 10 10 11 12 11 10 9 9 9 9 9 8 8 8 9 10 11
4 1 2 3 2 2 3 3 9 3 3 5 9 11 13 15 17 20 20 19 18 17 14 15 14 15 15 15 14 13 12 12 11 11 12 13 13 13 12 13 14 13 13 13 13 11 10 11 14
6 4 5 2 1 2 4 13 7 3 8 9 9 10 12 14 17 17 17 18 18 17 17 15 18 18 16 16 14 13 13 12 12 12 12 14 16 16 15 14 14 13 15 15 14 13 12 14 16
3 6 8 3 4 1 6 5 5 3 5 9 9 11 11 11 14 18 19 19 18 18 18 17 17 18 18 18 16 16 17 17 15 14 13 13 15 17 17 16 14 12 12 13 11 12 12 13 14
8 6 3 8 2 2 5 8 4 2 4 7 7 10 12 13 17 20 21 19 17 17 17 18 18 19 20 19 18 17 17 17 17 16 16 16 14 15 17 17 16 14 12 12 10 7 7 8 11
6 7 10 3 2 3 7 10 10 4 4 7 10 10 10 14 16 18 18 17 17 18 21 21 19 21 20 17 13 12 13 13 14 15 16 16 15 14 14 15 15 14 12 9 8 8 7 9 6
8 7 5 1 2 3 2 11 11 8 8 11 14 13 13 13 14 17 18 18 20 21 19 18 22 20 22 17 16 12 10 12 11 12 13 13 14 14 13 14 14 12 9 10 8 7 8 6 5
3 9 5 1 2 2 5 11 11 7 8 11 14 17 16 19 19 17 17 19 18 18 19 22 21 20 20 20 18 15 13 11 9 10 10 11 11 12 13 13 13 13 11 9 7 5 5 8 6
7 6 8 8 3 6 3 9 10 7 9 9 13 17 20 19 18 16 19 18 18 20 19 20 21 21 20 21 18 16 13 12 9 9 11 10 10 10 12 13 14 14 12 9 7 7 5 4 6
2 8 8 3 4 2 5 6 6 1 8 16 19 17 14 13 12 14 17 18 19 18 18 20 19 19 21 23 21 17 15 11 10 12 13 12 11 11 11 11 10 9 8 6 6 5 5 6 4
14 12 9 5 2 6 10 8 13 10 12 13 3 2 1 4 6 9 10 9 12 11 14 15 18 21 23 23 21 17 14 14 13 14 13 12 11 11 10 10 9 8 6 6 5 5 5 5 4
4 12 3 2 4 6 3 7 16 5 10 11 8 5 9 7 8 9 9 12 10 9 11 15 20 19 20 20 18 18 16 16 15 15 15 14 13 11 11 9 8 8 7 6 5 4 4 3 3
12 10 4 7 6 2 2 9 4 7 11 11 7 6 9 9 7 8 10 11 9 9 11 13 15 14 16 16 15 16 17 16 15 16 16 15 14 13 12 11 10 9 8 7 6 5 4 3 3
8 8 3 5 2 2 4 6 11 10 15 10 3 3 5 4 5 7 8 7 8 8 10 14 15 15 17 17 17 16 16 17 18 18 17 16 16 15 14 13 12 11 10 9 7 6 5 4 3
6 13 4 1 5 6 6 7 9 4 5 3 1 3 3 4 4 5 6 6 6 7 9 13 16 17 17 17 16 16 17 18 18 19 18 17 16 16 15 14 13 11 10 8 7 6 5 5 5
5 7 2 3 3 4 4 5 3 5 3 2 1 3 5 5 6 4 5 5 6 5 8 11 12 13 15 16 16 16 16 18 18 19 19 19 18 17 16 15 14 12 11 10 9 8 8 8 7
12 9 9 5 5 3 2 7 5 4 3 3 3 3 6 4 4 4 4 4 6 7 10 15 16 17 18 17 17 18 18 18 18 19 19 20 19 18 17 16 16 14 13 12 11 11 10 10 9
Wind_Direction
36 145 165 206 220 228 142 155 133 151 167 121 144 221 183 14 352 51 132 153 148 148 152 148 151 152 146 135 122 128 136 123 122 115 106 98 86 87 85 85 86 93 82 83 81 79 76 75 79
149 154 210 226 239 212 143 150 178 157 117 131 122 133 159 92 70 121 140 153 153 151 151 152 152 154 152 148 135 129 122 141 133 125 116 104 92 96 94 92 83 92 91 80 77 72 74 74 69
160 195 237 214 224 211 159 172 142 126 131 162 135 20 94 102 107 143 135 148 151 152 152 156 157 155 153 153 148 148 131 133 134 127 118 118 111 109 101 111 100 98 94 79 73 66 68 69 57
187 186 150 238 182 104 119 151 151 145 141 203 150 121 121 43 141 137 148 150 151 152 152 155 155 154 154 159 153 152 135 126 134 133 123 123 117 123 128 119 124 101 98 84 69 75 83 86 73
208 207 187 201 145 122 136 147 157 158 142 154 178 134 114 135 126 144 151 155 155 154 155 156 158 155 151 154 165 164 142 128 120 127 131 132 125 121 135 134 149 135 117 86 61 71 106 91 63
189 247 197 188 162 125 137 159 162 155 147 143 156 140 133 148 144 149 156 159 161 159 159 162 164 162 158 154 159 163 161 164 155 143 145 149 144 131 127 144 161 170 180 111 44 48 92 162 205
220 212 193 167 155 161 156 171 180 166 156 166 140 136 119 164 159 155 160 162 164 166 166 166 168 171 172 167 166 167 173 180 176 177 191 183 183 175 154 151 162 182 180 145 80 60 58 65 272
133 219 158 163 175 168 157 171 191 182 144 118 176 165 161 166 163 157 160 164 168 172 175 177 178 176 181 187 184 182 182 184 189 194 207 213 212 211 207 204 202 189 190 204 261 342 350 339 321
259 192 186 171 176 151 160 172 161 134 139 166 164 178 135 154 159 160 161 169 175 182 184 185 187 189 191 192 202 204 206 207 207 213 225 224 217 233 230 225 224 223 234 248 261 272 285 293 306
293 214 178 152 155 169 168 181 155 167 155 166 169 136 148 153 165 171 175 178 185 188 190 193 194 194 197 202 203 208 219 219 220 218 233 232 230 230 225 234 242 243 248 257 268 275 278 297 287
4 81 70 98 89 180 162 163 161 161 184 194 183 161 163 163 175 184 187 190 191 193 193 196 197 198 200 206 205 210 212 219 223 225 224 236 238 240 238 241 246 246 263 262 274 282 277 268 278
133 59 35 7 40 164 172 146 168 191 105 160 167 165 167 175 182 187 190 192 191 193 199 198 198 198 201 203 206 214 214 218 221 223 226 230 238 237 230 238 239 248 261 265 281 285 284 281 280
42 40 51 43 108 100 145 169 182 201 79 151 156 166 178 184 188 190 193 197 199 202 202 201 199 202 205 207 212 215 219 226 231 231 230 229 233 237 235 235 235 249 259 265 276 289 294 296 292
25 38 58 51 104 102 167 131 191 191 86 141 170 181 186 191 190 189 196 201 206 207 209 207 208 209 211 214 216 220 226 232 236 239 240 237 236 238 237 250 255 255 262 262 260 264 280 285 288
47 319 84 44 28 113 158 152 219 138 162 175 193 191 193 201 199 203 203 207 209 215 214 215 215 217 218 224 228 230 233 236 242 247 248 244 246 246 247 257 259 261 259 259 267 269 270 279 285
6 288 219 133 304 59 225 213 187 146 191 193 196 204 206 206 217 214 212 218 215 216 218 221 226 227 228 228 230 233 237 242 249 252 252 249 245 245 247 247 246 251 253 255 256 264 263 275 276
101 248 235 180 355 253 209 220 157 145 213 213 206 213 218 221 221 225 225 224 224 225 227 229 232 234 234 236 235 236 242 250 253 258 257 254 247 242 240 245 245 242 248 241 242 257 265 283 289
169 184 272 224 61 276 215 227 130 120 225 231 226 224 224 227 230 226 228 229 232 234 237 237 237 237 233 231 233 234 238 243 253 260 262 260 251 241 237 240 244 237 235 249 248 245 269 294 297
154 145 201 207 45 249 239 258 241 209 268 252 245 242 242 244 247 239 240 233 231 233 238 239 234 231 221 216 215 225 233 243 252 258 262 258 251 243 233 235 238 236 235 224 223 245 275 287 297
150 170 182 141 30 258 274 265 264 242 252 247 253 249 249 251 251 242 240 235 234 239 238 230 232 224 220 215 216 216 222 237 243 257 257 252 246 235 227 223 224 217 211 216 223 241 270 268 280
187 198 177 43 90 82 302 264 252 239 247 255 254 253 255 247 250 249 241 243 243 241 235 234 229 221 218 218 218 220 228 239 244 246 246 241 234 225 218 204 199 202 204 213 224 235 247 258 265
198 187 154 139 183 257 344 279 234 251 258 250 255 245 247 251 253 260 260 254 248 247 247 239 231 225 220 220 218 215 219 228 228 219 229 227 218 211 206 202 201 204 210 216 222 239 235 244 259
158 162 146 130 204 280 198 267 237 228 258 255 247 246 252 264 267 263 262 260 260 257 245 242 226 217 219 218 218 219 222 223 222 221 214 210 207 203 201 200 201 203 206 213 225 234 238 239 244
135 103 73 72 122 250 228 230 265 218 221 245 264 269 276 312 299 276 274 276 273 262 245 224 216 215 215 215 218 219 221 218 214 209 203 203 200 198 196 196 199 205 214 222 226 227 225 228 228
192 157 124 182 192 253 149 212 251 286 248 249 284 311 304 303 286 280 280 283 281 259 235 215 209 207 211 214 216 219 220 217 214 207 201 198 199 199 199 199 202 203 203 202 199 197 198 203 207
185 182 179 206 207 236 137 232 255 261 271 271 274 272 288 295 303 294 291 284 278 258 233 214 207 202 207 211 214 217 217 213 208 205 202 200 200 203 206 205 201 199 198 198 200 202 208 207 212
174 210 91 101 47 254 212 267 257 262 266 263 284 266 269 304 312 306 307 285 268 241 224 207 200 201 206 209 212 213 211 209 207 204 203 205 207 208 204 203 203 204 206 203 204 206 208 205 205
198 144 145 180 203 239 224 266 247 228 230 246 53 0 288 256 277 286 288 278 259 243 224 209 206 206 209 208 210 211 210 208 207 206 207 208 208 205 205 206 207 206 206 206 204 203 199 198 199
159 182 172 156 198 232 267 248 226 230 231 258 341 335 311 310 317 296 271 274 270 247 217 212 212 210 212 212 212 211 210 208 208 207 206 205 206 207 209 211 211 212 212 210 206 205 202 199 198
221 211 187 198 187 242 297 254 168 192 130 141 138 349 317 301 307 319 312 298 258 238 223 213 212 214 217 217 216 215 215 212 210 209 210 211 211 213 214 215 215 216 215 211 207 203 200 193 188
Height
803 803 806 804 811 809 827 828 817 825 827 824 824 825 824 829 829 839 843 845 848 852 855 857 857 859 860 862 862 863 864 865 866 867 868 868 868 868 868 868 867 867 867 867 867 867 866 867 866
804 805 806 800 813 821 821 820 825 821 823 825 827 828 829 833 834 839 843 846 849 852 855 858 858 860 861 863 864 865 865 866 866 867 868 868 868 869 869 869 869 869 869 869 869 869 869 868 868
805 805 802 803 811 816 818 819 819 825 827 825 828 829 830 835 838 840 843 847 850 853 856 858 859 860 862 863 864 866 867 867 868 868 869 869 869 870 870 870 871 871 871 872 871 870 870 870 869
806 805 803 809 814 818 813 814 819 827 828 827 823 831 833 837 838 841 845 848 851 855 857 858 860 861 863 864 865 867 868 868 869 870 870 870 870 870 871 871 872 872 872 872 871 871 871 870 870
805 799 811 815 818 817 817 814 818 824 824 827 826 833 834 838 839 842 846 850 852 855 858 859 861 862 864 865 866 867 868 869 870 870 871 871 871 871 871 872 872 872 873 872 872 872 872 871 870
803 798 813 818 820 819 818 816 818 820 823 829 827 828 834 839 841 843 847 850 853 855 857 859 861 863 864 865 867 868 869 870 871 871 871 871 871 871 872 872 872 873 872 873 872 872 872 871 871
800 803 806 809 820 823 817 817 819 819 823 826 823 830 834 839 841 843 847 850 854 856 858 860 862 863 865 865 866 868 869 870 871 872 872 872 872 872 872 872 872 873 873 873 872 872 872 871 871
801 802 816 809 816 818 815 819 816 817 823 826 825 828 834 835 842 844 847 850 853 856 858 860 862 863 865 866 867 868 869 869 870 871 871 871 871 871 871 871 872 872 872 872 872 872 871 871 871
805 807 811 814 814 813 817 819 821 822 822 826 827 825 827 834 842 845 847 850 853 855 857 859 861 862 864 866 867 868 869 869 869 870 870 870 871 871 871 871 871 871 871 871 871 871 871 870 870
805 805 806 804 803 808 815 814 819 820 824 826 828 831 831 834 840 844 847 848 851 854 856 859 860 861 862 864 865 867 869 869 870 870 870 870 870 870 870 870 869 869 870 870 870 870 869 869 870
811 813 813 812 810 808 812 816 817 815 825 817 820 826 831 833 839 842 845 847 850 853 855 857 859 860 862 863 864 865 866 867 868 868 868 869 869 868 868 869 869 869 869 869 869 869 869 869 868
814 817 815 818 813 815 815 813 817 813 812 814 817 823 828 831 834 838 842 846 848 851 854 855 857 859 860 862 862 864 864 865 866 866 866 867 867 867 867 867 868 868 868 868 867 868 867 867 867
815 818 817 818 817 818 817 818 814 817 817 819 821 824 826 830 833 836 840 844 847 850 851 853 854 856 858 859 861 862 863 863 864 865 864 865 865 866 866 866 866 866 866 866 865 865 865 865 865
820 819 821 820 820 820 819 821 819 815 820 821 823 824 825 827 829 834 837 840 843 846 848 851 852 854 855 856 857 859 860 861 862 862 863 863 863 863 863 863 863 864 864 864 864 863 863 863 863
823 824 820 821 820 823 817 825 822 818 821 822 824 824 826 828 830 831 834 836 839 843 846 847 850 851 852 854 855 856 857 857 858 859 860 860 861 861 861 861 861 860 860 860 860 860 860 860 860
834 828 827 823 823 823 821 821 816 821 820 821 823 824 826 827 829 831 832 835 837 839 841 844 845 847 849 850 851 853 853 854 855 855 855 855 856 857 858 857 857 857 856 857 857 857 857 857 856
851 838 832 830 828 824 822 818 821 822 823 820 820 822 824 825 827 829 830 832 835 836 838 839 841 843 845 846 847 848 848 849 850 850 850 850 851 851 853 853 853 853 853 853 854 854 854 854 853
836 842 837 826 834 831 829 819 823 825 825 821 820 820 822 822 820 823 825 828 832 833 835 836 836 838 840 841 842 843 844 845 845 845 845 844 845 846 847 848 849 849 850 850 850 852 852 851 851
827 833 831 833 839 835 828 825 818 824 827 824 821 821 822 820 818 820 822 824 825 827 829 831 833 833 835 836 839 841 841 841 841 840 840 840 840 840 842 844 845 846 847 847 848 848 849 849 848
830 833 837 841 842 837 838 829 820 824 821 819 820 819 818 816 814 817 818 819 820 821 823 825 827 829 830 832 833 835 837 837 837 837 836 836 836 836 837 839 841 842 843 844 845 845 846 846 846
837 830 839 838 846 847 840 825 821 813 821 820 819 816 812 809 808 808 812 814 815 816 818 819 821 824 826 828 829 831 832 833 834 833 834 834 834 834 834 835 837 838 840 842 842 843 843 843 844
838 835 835 844 842 840 848 829 812 815 816 818 812 809 805 806 807 808 808 809 811 811 812 814 816 819 821 824 826 827 828 829 830 830 830 831 832 833 833 834 834 835 836 837 838 839 840 841 842
831 837 836 844 844 850 848 846 813 829 818 809 798 798 802 804 806 803 804 805 805 806 807 808 811 814 815 818 820 822 823 825 825 825 827 828 830 831 832 833 834 835 835 836 836 837 838 839 841
837 841 848 852 850 854 836 842 804 807 808 796 801 801 805 805 804 803 801 802 801 802 802 803 805 807 809 812 815 817 820 820 821 822 824 826 828 829 830 831 832 833 833 834 835 836 837 838 839
834 832 854 860 862 845 851 849 800 803 804 802 800 805 803 803 802 800 800 799 799 799 799 799 800 802 805 809 811 812 814 816 817 819 821 824 826 827 828 829 829 830 831 832 833 834 835 836 837
833 825 833 842 843 829 860 836 801 805 802 802 805 806 805 801 799 798 797 797 796 796 796 798 799 802 804 806 808 809 810 812 814 815 818 820 822 824 825 826 826 827 828 830 831 832 833 833 833
834 835 832 850 884 850 827 820 808 805 800 796 799 802 799 799 798 796 795 795 795 795 795 796 797 799 800 802 804 805 806 807 810 812 814 817 818 820 821 823 824 825 827 827 828 829 829 830 830
821 824 841 844 845 840 820 824 802 799 794 793 795 796 797 798 797 796 795 794 794 793 793 794 795 796 798 799 801 803 804 806 808 809 811 814 816 818 819 820 822 823 824 825 826 827 827 828 828
828 829 831 829 833 826 821 798 795 795 796 795 796 796 795 794 794 795 794 793 793 793 793 795 796 797 797 799 800 802 803 805 806 807 809 811 813 815 816 818 819 820 821 821 822 823 824 825 826
816 818 821 821 841 833 833 803 796 797 797 796 797 799 797 796 795 794 794 793 793 792 793 792 793 793 795 797 799 800 801 803 804 805 807 808 810 812 813 814 815 816 817 817 818 819 820 821 823